Météo par heure à Fier

Ce jour, 29 Septembre, Mardi

Heure Température Précipitation Vent Pression Humidité
00:00 +20°C° 1.5 mm 6 m/s 759 mmHg 76%
01:00 +20°C° 0 mm 6 m/s 759 mmHg 74%
02:00 +19°C° 0.9 mm 5 m/s 759 mmHg 76%
03:00 +19°C° 0.9 mm 4 m/s 759 mmHg 77%
04:00 +18°C° 0.9 mm 4 m/s 759 mmHg 78%
05:00 +19°C° 0.6 mm 3 m/s 759 mmHg 77%
06:00 +19°C° 0.6 mm 3 m/s 759 mmHg 76%
07:00 +19°C° 0 mm 3 m/s 759 mmHg 74%
08:00 +20°C° 0.6 mm 3 m/s 759 mmHg 69%
09:00 +21°C° 0.6 mm 3 m/s 760 mmHg 64%
10:00 +22°C° 0.6 mm 4 m/s 760 mmHg 60%
11:00 +22°C° 0.3 mm 4 m/s 760 mmHg 58%
12:00 +23°C° 0.3 mm 5 m/s 760 mmHg 57%
13:00 +23°C° 0.3 mm 5 m/s 760 mmHg 56%
14:00 +22°C° 0.2 mm 5 m/s 760 mmHg 59%
15:00 +22°C° 0.2 mm 5 m/s 760 mmHg 61%
16:00 +21°C° 0.2 mm 4 m/s 759 mmHg 64%
17:00 +20°C° 0 mm 4 m/s 760 mmHg 67%
18:00 +19°C° 0 mm 3 m/s 760 mmHg 70%
19:00 +18°C° 0 mm 2 m/s 760 mmHg 74%
20:00 +18°C° 0 mm 2 m/s 761 mmHg 74%
21:00 +19°C° 0 mm 1 m/s 761 mmHg 75%
22:00 +19°C° 0 mm 1 m/s 761 mmHg 76%
23:00 +19°C° 0 mm 1 m/s 761 mmHg 76%

Demain, 30 Septembre, Mercredi

Heure Température Précipitation Vent Pression Humidité
00:00 +19°C° 0 mm 1 m/s 761 mmHg 76%
01:00 +18°C° 0 mm 1 m/s 761 mmHg 76%
02:00 +18°C° 0 mm 1 m/s 760 mmHg 76%
03:00 +18°C° 0 mm 1 m/s 760 mmHg 77%
04:00 +18°C° 0 mm 1 m/s 759 mmHg 77%
05:00 +17°C° 0 mm 2 m/s 759 mmHg 76%
06:00 +17°C° 0 mm 2 m/s 759 mmHg 74%
07:00 +18°C° 0 mm 2 m/s 759 mmHg 73%
08:00 +19°C° 0 mm 2 m/s 759 mmHg 67%
09:00 +21°C° 0 mm 1 m/s 759 mmHg 61%
10:00 +23°C° 0 mm 1 m/s 759 mmHg 56%
11:00 +23°C° 0 mm 2 m/s 758 mmHg 55%
12:00 +22°C° 0 mm 3 m/s 758 mmHg 54%
13:00 +24°C° 0 mm 3 m/s 758 mmHg 53%
14:00 +24°C° 0 mm 3 m/s 757 mmHg 54%
15:00 +22°C° 0 mm 4 m/s 757 mmHg 54%
16:00 +22°C° 0 mm 4 m/s 757 mmHg 55%
17:00 +21°C° 0 mm 3 m/s 757 mmHg 59%
18:00 +20°C° 0 mm 2 m/s 757 mmHg 62%
19:00 +20°C° 0 mm 1 m/s 757 mmHg 66%
20:00 +19°C° 0 mm 1 m/s 757 mmHg 67%
21:00 +19°C° 0 mm 1 m/s 757 mmHg 69%
22:00 +19°C° 0 mm 1 m/s 757 mmHg 70%
23:00 +18°C° 0 mm 1 m/s 757 mmHg 71%

Après-demain, 1 Octobre, Jeudi

Heure Température Précipitation Vent Pression Humidité
00:00 +18°C° 0 mm 1 m/s 757 mmHg 72%
01:00 +18°C° 0 mm 1 m/s 756 mmHg 73%
02:00 +18°C° 0 mm 1 m/s 756 mmHg 74%
03:00 +16°C° 0 mm 1 m/s 756 mmHg 75%
04:00 +16°C° 0 mm 1 m/s 756 mmHg 76%
05:00 +16°C° 0 mm 1 m/s 756 mmHg 74%
06:00 +17°C° 0 mm 2 m/s 756 mmHg 71%
07:00 +18°C° 0 mm 2 m/s 756 mmHg 69%
08:00 +20°C° 0 mm 1 m/s 756 mmHg 63%
09:00 +22°C° 0 mm 1 m/s 756 mmHg 56%
10:00 +23°C° 0 mm 1 m/s 756 mmHg 49%
11:00 +24°C° 0 mm 1 m/s 756 mmHg 48%
12:00 +24°C° 0 mm 2 m/s 755 mmHg 47%
13:00 +24°C° 0 mm 2 m/s 755 mmHg 46%
14:00 +24°C° 0 mm 2 m/s 755 mmHg 48%
15:00 +24°C° 0 mm 2 m/s 755 mmHg 50%
16:00 +23°C° 0 mm 2 m/s 755 mmHg 53%
17:00 +21°C° 0 mm 2 m/s 755 mmHg 57%
18:00 +21°C° 0 mm 1 m/s 756 mmHg 62%
19:00 +20°C° 0 mm 1 m/s 756 mmHg 66%
20:00 +20°C° 0 mm 1 m/s 756 mmHg 67%
21:00 +20°C° 0 mm 1 m/s 756 mmHg 67%
22:00 +19°C° 0 mm 1 m/s 756 mmHg 67%
23:00 +19°C° 0 mm 1 m/s 756 mmHg 67%

2 Octobre, Vendredi

Heure Température Précipitation Vent Pression Humidité
00:00 +19°C° 0 mm 1 m/s 756 mmHg 66%
01:00 +19°C° 0 mm 1 m/s 756 mmHg 66%
02:00 +18°C° 0 mm 2 m/s 756 mmHg 66%
03:00 +18°C° 0 mm 2 m/s 756 mmHg 65%
04:00 +17°C° 0 mm 2 m/s 756 mmHg 65%
05:00 +18°C° 0 mm 2 m/s 756 mmHg 64%
06:00 +18°C° 0 mm 3 m/s 756 mmHg 63%
07:00 +19°C° 0 mm 3 m/s 757 mmHg 61%
08:00 +21°C° 0 mm 3 m/s 757 mmHg 55%
09:00 +24°C° 0 mm 3 m/s 757 mmHg 50%
10:00 +25°C° 0 mm 3 m/s 757 mmHg 44%
11:00 +26°C° 0 mm 3 m/s 757 mmHg 42%
12:00 +27°C° 0 mm 4 m/s 756 mmHg 40%
13:00 +28°C° 0 mm 5 m/s 756 mmHg 37%
14:00 +28°C° 0 mm 5 m/s 756 mmHg 39%
15:00 +28°C° 0 mm 5 m/s 756 mmHg 40%
16:00 +27°C° 0 mm 5 m/s 756 mmHg 41%
17:00 +26°C° 0 mm 5 m/s 757 mmHg 47%
18:00 +23°C° 0 mm 5 m/s 757 mmHg 54%
19:00 +22°C° 0 mm 5 m/s 757 mmHg 60%
20:00 +21°C° 0 mm 4 m/s 758 mmHg 62%
21:00 +21°C° 0 mm 4 m/s 758 mmHg 64%
22:00 +21°C° 0 mm 4 m/s 758 mmHg 66%
23:00 +20°C° 0 mm 4 m/s 758 mmHg 66%

3 Octobre, Samedi

Heure Température Précipitation Vent Pression Humidité
00:00 +20°C° 0 mm 4 m/s 758 mmHg 66%
01:00 +20°C° 0 mm 4 m/s 758 mmHg 67%
02:00 +19°C° 0 mm 4 m/s 758 mmHg 67%
03:00 +19°C° 0 mm 4 m/s 758 mmHg 67%
04:00 +19°C° 0 mm 4 m/s 758 mmHg 67%
05:00 +20°C° 0 mm 4 m/s 758 mmHg 64%
06:00 +20°C° 0 mm 3 m/s 758 mmHg 61%
07:00 +21°C° 0 mm 3 m/s 759 mmHg 58%
08:00 +24°C° 0 mm 3 m/s 759 mmHg 52%
09:00 +26°C° 0 mm 3 m/s 759 mmHg 47%
10:00 +28°C° 0 mm 3 m/s 759 mmHg 41%
11:00 +30°C° 0 mm 3 m/s 758 mmHg 39%
12:00 +31°C° 0 mm 3 m/s 758 mmHg 37%
13:00 +33°C° 0 mm 3 m/s 758 mmHg 35%
14:00 +32°C° 0 mm 4 m/s 758 mmHg 37%
15:00 +32°C° 0 mm 5 m/s 757 mmHg 40%
16:00 +30°C° 0 mm 6 m/s 757 mmHg 43%
17:00 +29°C° 0 mm 5 m/s 758 mmHg 48%
18:00 +27°C° 0 mm 5 m/s 758 mmHg 52%
19:00 +26°C° 0 mm 4 m/s 758 mmHg 56%
20:00 +25°C° 0 mm 4 m/s 758 mmHg 56%
21:00 +25°C° 0 mm 3 m/s 758 mmHg 55%
22:00 +25°C° 0 mm 3 m/s 758 mmHg 55%
23:00 +25°C° 0 mm 3 m/s 758 mmHg 54%

4 Octobre, Dimanche

Heure Température Précipitation Vent Pression Humidité
00:00 +25°C° 0 mm 3 m/s 758 mmHg 53%
01:00 +25°C° 0 mm 3 m/s 757 mmHg 52%
02:00 +25°C° 0 mm 3 m/s 757 mmHg 52%
03:00 +24°C° 0 mm 3 m/s 757 mmHg 53%
04:00 +24°C° 0 mm 3 m/s 757 mmHg 53%
05:00 +25°C° 0 mm 4 m/s 758 mmHg 51%
06:00 +25°C° 0 mm 4 m/s 758 mmHg 50%
07:00 +26°C° 0 mm 4 m/s 758 mmHg 48%
08:00 +28°C° 0 mm 5 m/s 757 mmHg 43%
09:00 +30°C° 0 mm 6 m/s 757 mmHg 37%
10:00 +34°C° 0 mm 7 m/s 757 mmHg 32%
11:00 +34°C° 0 mm 7 m/s 757 mmHg 32%
12:00 +35°C° 0 mm 8 m/s 757 mmHg 32%
13:00 +35°C° 0 mm 8 m/s 757 mmHg 32%
14:00 +34°C° 0 mm 8 m/s 757 mmHg 37%
15:00 +32°C° 0 mm 8 m/s 756 mmHg 41%
16:00 +31°C° 0 mm 9 m/s 756 mmHg 46%
17:00 +31°C° 0 mm 8 m/s 756 mmHg 46%
18:00 +29°C° 0 mm 7 m/s 756 mmHg 46%
19:00 +29°C° 0 mm 6 m/s 756 mmHg 46%
20:00 +28°C° 0 mm 5 m/s 756 mmHg 48%
21:00 +27°C° 0 mm 5 m/s 756 mmHg 49%
22:00 +27°C° 0 mm 4 m/s 756 mmHg 50%
23:00 +26°C° 0 mm 5 m/s 756 mmHg 54%
Voir plus

We Need Your Consent

Meteoprog and our Service Providers may store and access personal data such as cookies, device identifiers or other similar technologies on your device and process such data to personalise content and ads, as well as provide social media features and to analyse the traffic.

  • Store and/or access information on your device

    Cookies, device identifiers or other information can be stored or accessed on your device for the purposes indicated above.

  • Personalised ads and content, ad and content measurement, audience insights, and products development

    Ads and content can be personalised based on a profile. More data can be added to better personalise ads and content. Ad and content performance can be measured. Insights about the audience who saw the ads and content can be derived. Such data can be used to develop or improve user’s experience, systems and software.

By clicking ‘I Agree’ you will allow the use of indicated cookies, device identifiers, web beacons or other similar technologies. Your settings can be changed in the browser on your device.

For certain purposes, legitimate interests may be relied on, rather than consent. You can read more about this in our Privacy and Cookie Policy.